This is the latest recevied weather packets stored in our database for station/object NR6G-5. If no packets are shown the sender has not sent any weather packets the latest 10 day(s).
| Time | Temp. | Humidity | Pressure | Rain* | Wind** | Luminosity | Snow |
|---|---|---|---|---|---|---|---|
| 1777654537 | 23.33° C | 51% | 1013.3 hPa | 0 mm | - | - | - |
| 1777654159 | 22.78° C | 52% | 1013.4 hPa | 0 mm | - | - | - |
| 1777653858 | 22.78° C | 52% | 1013.4 hPa | 0 mm | - | - | - |
| 1777653565 | 22.78° C | 52% | 1013.4 hPa | 0 mm | - | - | - |
| 1777653262 | 22.22° C | 52% | 1013.6 hPa | 0 mm | - | - | - |
| 1777652958 | 22.78° C | 52% | 1013.5 hPa | 0 mm | - | - | - |
| 1777652658 | 22.22° C | 51% | 1013.5 hPa | 0 mm | - | - | - |
| 1777652358 | 22.22° C | 52% | 1013.5 hPa | 0 mm | - | - | - |
| 1777652059 | 22.22° C | 52% | 1013.5 hPa | 0 mm | - | - | - |
| 1777651758 | 22.22° C | 52% | 1013.6 hPa | 0 mm | - | - | - |
| 1777651461 | 22.22° C | 51% | 1013.5 hPa | 0 mm | - | - | - |
| 1777651158 | 21.67° C | 51% | 1013.6 hPa | 0 mm | - | - | - |
| 1777650858 | 21.67° C | 52% | 1013.5 hPa | 0 mm | - | - | - |
| 1777650559 | 21.67° C | 52% | 1013.5 hPa | 0 mm | - | - | - |
| 1777649957 | 21.67° C | 52% | 1013.5 hPa | 0 mm | - | - | - |
| 1777649662 | 21.11° C | 53% | 1013.4 hPa | 0 mm | - | - | - |
| 1777649065 | 21.11° C | 53% | 1013.4 hPa | 0 mm | - | - | - |
| 1777648762 | 21.67° C | 51% | 1013.3 hPa | 0 mm | - | - | - |
| 1777648463 | 21.67° C | 51% | 1013.4 hPa | 0 mm | - | - | - |
| 1777647864 | 21.67° C | 54% | 1013.4 hPa | 0 mm | - | - | - |
| 1777647562 | 21.11° C | 56% | 1013.3 hPa | 0 mm | - | - | - |
| 1777647262 | 20.56° C | 59% | 1013.3 hPa | 0 mm | - | - | - |
| 1777646957 | 20° C | 61% | 1013.3 hPa | 0 mm | - | - | - |
| 1777646657 | 19.44° C | 62% | 1013.2 hPa | 0 mm | - | - | - |
| 1777646358 | 19.44° C | 62% | 1013.2 hPa | 0 mm | - | - | - |
* Rain latest hour (hover to see other rain measurements)
** Current wind speed in m/s (hover to see current wind gust speed)